Location: Kumla
(59.1265°N, 15.1401°E)
Time: 20:39:53
(UTC+01:00)

Transit 2A - Pass Details

Date: 07 December 2023
Orbit: 600 x 953 km, 66.7° (Epoch: 24 February)

Event Time Altitude Azimuth Distance (km) Brightness Sun altitude
Rises 21:43:55 0° 308° (NW) 2,908 9.7 -47.2°
Enters shadow 21:44:17 - 308° (NW) 2,761 9.6 -47.2°
Reaches altitude 10° 21:46:14 10° 311° (NW) 1,976 - -47.4°
Maximum altitude 21:50:37 66° 35° (NE) 661 - -47.8°
Drops below altitude 10° 21:54:56 10° 118° (ESE) 1,956 - -48.1°
Sets 21:57:13 0° 121° (ESE) 2,875 - -48.3°
